Flag for Japan Weather past 2 weeks in Kumamoto, Japan

Now
73 °F

Light rain. Fog.


Feels Like: 68 °F
Forecast: 70 / 83 °F
Wind: 2 mph from East

Location: Kumamoto Airport

Current Time: Sep 2, 2015 at 10:30:33 AM

Latest Report: Sep 2, 2015 at 9:00 AM


Visibility: N/A

Pressure: 29.95 "Hg

Humidity: 100%

Dew point: 73 °F

Location of KumamotoLocation

Historic Weather in Kumamoto — Graph

°F

Kumamoto temperature yesterday

Maximum temperature yesterday: 75 °F (at 12:00 PM)
Minimum temperature yesterday: 70 °F (at 2:51 PM)
Average temperature yesterday: 73 °F

Past Weeks' High & Low Weather Summary

 TemperatureHumidityPressure
High90 °F (Aug 20, 2:00 PM)100% (Aug 19, 8:00 AM)29.95 "Hg (Aug 19, 8:00 AM)
Low70 °F (Sep 1, 2:51 PM)46% (Aug 23, 2:00 PM)29.03 "Hg (Aug 25, 8:00 AM)
Average78 °F84%29.76 "Hg
* Reported Aug 18 9:00 AM — Sep 2 9:00 AM, Kumamoto, Weather by CustomWeather, © 2015

Note: Actual official high and low records may vary slightly from our data, if they occured in-between our weather recording intervals... More about our weather records

Advertising

Kumamoto weather history for previous 24 hours

 ConditionsComfort  
Time TempWeatherWind HumidityBarometerVisibility
9:00 AM
Wed, Sep 2
73 °FLight rain. Fog.2 mph100%29.95 "HgN/A
8:00 AM73 °FFog.2 mph94%29.95 "HgN/A
7:00 AM72 °FFog.3 mph100%29.95 "HgN/A
9:00 PM
Tue, Sep 1
73 °FPartly cloudy.2 mph100%29.86 "HgN/A
8:00 PM73 °FPartly cloudy.2 mph100%29.86 "HgN/A
7:00 PM73 °FPartly cloudy.1 mph100%29.83 "HgN/A
6:00 PM73 °FBroken clouds.1 mph100%29.83 "HgN/A
5:00 PM75 °FBroken clouds.6 mph94%29.83 "HgN/A
4:00 PM73 °FBroken clouds.5 mph100%29.80 "HgN/A
3:00 PM70 °FRain showers. Fog.8 mph100%29.80 "Hg3 mi
2:51 PM70 °FLots of rain. Fog.7 mph100%29.80 "Hg1 mi
2:00 PM72 °FSprinkles. Broken clouds.8 mph100%29.80 "HgN/A
1:04 PM72 °FRain showers. Fog.7 mph94%29.86 "Hg1 mi
12:00 PM75 °FSprinkles. Broken clouds.5 mph89%29.83 "HgN/A
11:45 AM73 °FSprinkles. Broken clouds.6 mph94%29.83 "HgN/A
11:00 AM72 °FScattered showers. Partly sunny.6 mph100%29.86 "HgN/A
10:00 AM72 °FRain showers. Broken clouds.5 mph100%29.86 "Hg4 mi
Weather by CustomWeather, © 2015

See weather overviewHow to use our weather pages